Regional Weather Roundup
Issued by NWS

Home | Current Version | Previous Version | Graphics & Text | Print | Product List | Glossary On
Versions: 1 2 3 4 5 6 7 8 9 10 11 12 13 14 15 16 17 18 19 20 21 22 23 24 25 26 27 28 29 30 31 32 33 34 35 36 37 38 39 40 41 42 43 44 45 46 47 48 49 50
983
ASUS44 KJAN 201203
RWRMS

MISSISSIPPI HOURLY WEATHER ROUNDUP
NATIONAL WEATHER SERVICE JACKSON MS
700 AM CDT WED AUG 20 2014

NOTE: "FAIR: INDICATES FEW OR NO CLOUDS BELOW 12,000 FEET WITH NO
SIGNIFICANT WEATHER AND/OR OBSTRUCTIONS TO VISIBILITY.

MSZ001>002-007>008-010>013-018>021-025>028-034>036-201300-
NORTHWEST MISSISSIPPI

CITY           SKY/WX    TMP DP  RH WIND       PRES   REMARKS
CLARKSDALE     FAIR      73  73 100 CALM      30.00R
CLEVELAND      FAIR      73  73 100 S5        29.99R
GREENWOOD      CLEAR     73  71  93 S6        30.01R
6HR MIN TEMP:  73; 6HR MAX TEMP:  77;

GREENVILLE       N/A    N/A N/A N/A MISG      30.01R
GRENADA        FAIR      72  72 100 CALM      30.01R
OLIVE BRANCH   PTCLDY    73  73 100 S6        29.99R
OXFORD         FAIR      73  72  94 CALM      30.02R
TUNICA         SUNNY     72  72 100 S5        29.99R FOG
$$

MSZ003>006-009-014>017-022>024-029>033-037>039-201300-
NORTHEAST MISSISSIPPI

CITY           SKY/WX    TMP DP  RH WIND       PRES   REMARKS
BELMONT        FAIR      74  73  97 SW5       30.01R FOG
COLUMBUS AFB   CLEAR     72  71  96 SE2       30.01R
6HR MIN TEMP:  71; 6HR MAX TEMP:  76;

GOLDN TRIANGLE CLEAR     72  66  83 SW5       30.02R
STARKVILLE     FAIR      70  70 100 CALM      30.01R
TUPELO         CLEAR     76  73  91 W5        30.00R
6HR MIN TEMP:  75; 6HR MAX TEMP:  79;

$$

MSZ040-058-201300-
CENTRAL MISSISSIPPI

CITY           SKY/WX    TMP DP  RH WIND       PRES   REMARKS
JACKSON INTL   PTCLDY    73  72  96 S3        30.04R
6HR MIN TEMP:  72; 6HR MAX TEMP:  77;

JACKSON HAWKNS PTCLDY    74  71  91 CALM      30.04R
6HR MIN TEMP:  74; 6HR MAX TEMP:  79;

MERIDIAN KEY   CLEAR     69  68  96 S5        30.04R
6HR MIN TEMP:  68; 6HR MAX TEMP:  71; 6HR PCP:  0.02;

MERIDIAN NAS   CLEAR     72  70  93 SW3       30.03R
6HR MIN TEMP:  69; 6HR MAX TEMP:  73;

RAYMOND        FAIR      72  66  83 CALM      30.04R HAZE
VICKSBURG      PTCLDY    72  70  93 CALM      30.03R
6HR MIN TEMP:  71; 6HR MAX TEMP:  75;

$$

MSZ059>079-201300-
SOUTH MISSISSIPPI

CITY           SKY/WX    TMP DP  RH WIND       PRES   REMARKS
BROOKHAVEN     DRIZZLE   73  72  94 CALM      30.06R
COLUMBIA       FAIR      73  73 100 MISG      30.03R FOG
HATTIESBURG    MOCLDY    75  72  90 CALM      30.05R
6HR MIN TEMP:  75; 6HR MAX TEMP:  78;

MCCOMB         CLOUDY    73  71  93 CALM      30.05R
6HR MIN TEMP:  73; 6HR MAX TEMP:  77;

NATCHEZ        CLOUDY    73  70  88 S3        30.04R
6HR MIN TEMP:  73; 6HR MAX TEMP:  73;

PINE BELT      PTCLDY    73  70  88 CALM      30.06R
6HR MIN TEMP:  72; 6HR MAX TEMP:  75;

$$

MSZ080>082-201300-
COASTAL MISSISSIPPI

CITY           SKY/WX    TMP DP  RH WIND       PRES   REMARKS
BILOXI         PTCLDY    79  76  90 MISG      30.04R
6HR MIN TEMP:  79; 6HR MAX TEMP:  84;

PASCAGOULA     CLEAR     74  74 100 CALM      30.04R
6HR MIN TEMP:  74; 6HR MAX TEMP:  80;

GULFPORT       PTCLDY    77  75  93 CALM      30.03R
6HR MIN TEMP:  76; 6HR MAX TEMP:  80;

$$



USA.gov is the U.S. government's official web portal to all federal, state and local government web resources and services.